Regional Weather Roundup
Issued by NWS

Home | Current Version | Previous Version | Text Only | Print | Product List | Glossary Off
Versions: 1 2 3 4 5 6 7 8 9 10 11 12 13 14 15 16 17 18 19 20 21 22 23 24 25 26 27 28 29 30 31 32 33 34 35 36 37 38 39 40 41 42 43 44 45 46 47 48 49 50

000
ASUS43 KDMX 221501
RWRIA

WEATHER ROUNDUP FOR IOWA
NATIONAL WEATHER SERVICE DES MOINES IA
900 AM CST THU FEB 22 2018

NOTE: "FAIR" INDICATES FEW OR NO CLOUDS BELOW 12,000 FEET WITH NO
SIGNIFICANT WEATHER AND/OR OBSTRUCTIONS TO VISIBILITY.

* - THESE STATIONS ARE NOT NWS STATIONS...THUS NOT UNDER NWS
QUALITY CONTROL.  THEY ALSO DO NOT REPORT WEATHER SUCH
AS PRECIPITATION OR FOG.

IAZ001>003-012>014-020>022-031>034-043>046-221600-
   NORTHWEST IOWA

CITY           SKY/WX    TMP DP  RH WIND       PRES   REMARKS
CARROLL *      PTSUNNY   25  19  80 E13       30.43F WCI  13
CHEROKEE *     CLOUDY    23  20  90 E8        30.45F WCI  14
DENISON *      MIX PCPN  23  19  86 E10       30.44F WCI  12
LE MARS *      CLOUDY    23  19  86 E6        30.44F WCI  16
ORANGE CITY *  CLOUDY    23  21  93 E8        30.43F WCI  14
SHELDON *      CLOUDY    19  19 100 E8        30.43F WCI   9
SIOUX CITY     CLOUDY    22  18  85 E7        30.43F WCI  13
SPENCER        MIX PCPN  22  19  89 E7        30.46F FOG     WCI  13
STORM LAKE *   FAIR      21  19  93 E10       30.43F WCI  10
$$

IAZ055>058-069>071-079>083-090>094-221600-
   SOUTHWEST IOWA

CITY           SKY/WX    TMP DP  RH WIND       PRES   REMARKS
ATLANTIC *     LGT SNOW  25  23  93 E8G15     30.41F WCI  16
AUDUBON *      CLOUDY    25  21  86 CALM      30.43S
CLARINDA *     CLOUDY    27  27 100 E8        30.43S WCI  18
COUNCIL BLFS * FLURRIES  25  25 100 E13       30.38F WCI  13
CRESTON *      CLOUDY    25  21  86 E16       30.41S WCI  12
HARLAN  *      FLURRIES  23  23 100 E10       30.43F WCI  12
LAMONI         CLOUDY    26  23  88 E7        30.41S FOG     WCI  18
RED OAK *      CLOUDY    27  21  80 E14G22    30.40F WCI  15
SHENANDOAH *   CLOUDY    27  25  93 E10       30.41F FOG     WCI  17
$$

IAZ047>049-059>061-072>074-084-221600-
   CENTRAL IOWA

CITY           SKY/WX    TMP DP  RH WIND       PRES   REMARKS
AMES           CLOUDY    26  17  68 E9        30.46F WCI  17
ANKENY *       LGT SNOW  25  21  86 E14G21    30.45F WCI  13
BOONE *        CLOUDY    25  21  86 E16       30.42F WCI  12
CHARITON *     CLOUDY    27  25  93 E15       30.42F WCI  15
DES MOINES     LGT SNOW  25  21  85 E13       30.44F FOG     WCI  14
GRINNELL*      CLOUDY    26  19  74 E15       30.48S WCI  14
KNOXVILLE *    LGT SNOW  27  21  80 E12       30.45F WCI  16
MARSHALLTOWN   CLOUDY    25  17  72 E14       30.47F WCI  13
NEWTON *       LGT SNOW  27  19  74 E16       30.47F WCI  14
PELLA *        LGT SNOW  27  21  80 E7        30.48F VSB 1   WCI  19
PERRY *        CLOUDY    25  22  87 E13       30.45S WCI  14
$$

IAZ004>006-015-016-023>025-035-036-221600-
   NORTH CENTRAL IOWA

CITY           SKY/WX    TMP DP  RH WIND       PRES   REMARKS
CLARION *      FAIR      25  25 100 E13       30.47S WCI  13
ESTHERVILLE    PTSUNNY   18  16  92 E8        30.47F WCI   8
FORT DODGE *   CLOUDY    24  18  77 E12       30.47S WCI  13
MASON CITY     PTSUNNY   22  17  81 E7        30.50F WCI  13
FOREST CITY *  FAIR      27  21  80 E10G16    30.49R WCI  17
WEBSTER CITY * PTSUNNY   25  18  74 E9G16     30.45F WCI  15
IOWA FALLS *   CLOUDY    27  20  75 E10       30.48F WCI  17
$$

IAZ007>011-017>019-026>030-037>042-050>054-066-221600-
   NORTHEAST IOWA

CITY           SKY/WX    TMP DP  RH WIND       PRES   REMARKS
CEDAR RAPIDS   CLOUDY    29  16  58 E17       30.48F WCI  17
CHARLES CITY * CLOUDY    25  21  86 E14       30.50F WCI  13
CLINTON *      CLOUDY    29  23  78 NE15      30.52F WCI  18
DECORAH *      CLOUDY    23  18  80 E9        30.53F WCI  13
DUBUQUE        CLOUDY    25  16  68 NE13      30.54R WCI  14
MONTICELLO *   FAIR      28  18  64 E10       30.53F WCI  19
OELWEIN *      FAIR      25  19  80 E13       30.52S WCI  13
WATERLOO       CLOUDY    26  16  65 E12       30.52F WCI  16
$$

IAZ064-065-067-068-078-221600-
   EAST CENTRAL IOWA

CITY           SKY/WX    TMP DP  RH WIND       PRES   REMARKS
DAVENPORT      CLOUDY    30  22  72 E16       30.52F WCI  19
IOWA CITY      CLOUDY    31  19  61 NE13      30.51F WCI  21
MT. PLEASANT * MIX PCPN  30  27  86 NE14      30.47F WCI  20
MUSCATINE *    CLOUDY    32  23  69 NE9       30.52R WCI  24
QUAD CITIES    CLOUDY    31  24  75 E13       30.49F WCI  21
$$

IAZ062-063-075>077-085>089-095>099-221600-
   SOUTHEAST IOWA

CITY           SKY/WX    TMP DP  RH WIND       PRES   REMARKS
BURLINGTON     CLOUDY    30  25  81 NE10      30.47R WCI  21
FAIRFIELD *    PTSUNNY   28  25  86 NE10      30.48S FOG     WCI  19
FORT MADISON * CLOUDY    28  27  93 NE10      30.47S FOG     WCI  19
KEOKUK *       LGT RAIN  30  28  93 NE7       30.45F WCI  23
OSKALOOSA *    FLURRIES  27  23  83 E10       30.48S WCI  18
OTTUMWA        MIX PCPN  28  23  81 E10       30.47F WCI  19
WASHINGTON *   CLOUDY    28  27  93 NE13      30.51S WCI  18
$$

ABBREVIATIONS USED IN REMARKS
   TC - TEMPERATURES IN CELSIUS
  WCI - WIND CHILL INDEX
   HX - HEAT INDEX
  VSB - VISIBILITY
$$





USA.gov is the U.S. government's official web portal to all federal, state and local government web resources and services.